This is the latest recevied weather packets stored in our database for station/object KE5WTH-14. If no packets are shown the sender has not sent any weather packets the latest 10 day(s).
| Time | Temp. | Humidity | Pressure | Rain* | Wind** | Luminosity | Snow |
|---|---|---|---|---|---|---|---|
| 1778176916 | 20.56° C | 51% | 1017.8 hPa | 0 mm | - | 1006 W/m² | - |
| 1778176856 | 20.56° C | 50% | 1018 hPa | 0 mm | - | 1004 W/m² | - |
| 1778176795 | 20.56° C | 51% | 1018.1 hPa | 0 mm | - | 1002 W/m² | - |
| 1778176735 | 20.56° C | 53% | 1018 hPa | 0 mm | - | 1004 W/m² | - |
| 1778176676 | 20.56° C | 53% | 1018.1 hPa | 0 mm | - | 1004 W/m² | - |
| 1778176617 | 20.56° C | 50% | 1018.1 hPa | 0 mm | - | 1002 W/m² | - |
| 1778176556 | 20.56° C | 51% | 1018.2 hPa | 0 mm | - | 1000 W/m² | - |
| 1778176497 | 20.56° C | 50% | 1018.2 hPa | 0 mm | - | 1000 W/m² | - |
| 1778176436 | 20.56° C | 51% | 1018.3 hPa | 0 mm | - | 1000 W/m² | - |
| 1778176378 | 20.56° C | 51% | 1018.3 hPa | 0 mm | - | 932 W/m² | - |
| 1778176316 | 20.56° C | 51% | 1018.3 hPa | 0 mm | - | 932 W/m² | - |
| 1778176255 | 20.56° C | 51% | 1018.4 hPa | 0 mm | - | 932 W/m² | - |
| 1778176196 | 21.11° C | 51% | 1018.4 hPa | 0 mm | - | 1009 W/m² | - |
| 1778176136 | 21.11° C | 52% | 1018.4 hPa | 0 mm | - | 1004 W/m² | - |
| 1778176077 | 20.56° C | 51% | 1018.4 hPa | 0 mm | - | 1001 W/m² | - |
| 1778176016 | 20.56° C | 52% | 1018.4 hPa | 0 mm | - | 999 W/m² | - |
| 1778175956 | 20.56° C | 53% | 1018.4 hPa | 0 mm | - | 999 W/m² | - |
| 1778175895 | 20.56° C | 52% | 1018.4 hPa | 0 mm | - | 1004 W/m² | - |
| 1778175836 | 20.56° C | 52% | 1018.5 hPa | 0 mm | - | 999 W/m² | - |
| 1778175777 | 20.56° C | 51% | 1018.5 hPa | 0 mm | - | 957 W/m² | - |
| 1778175715 | 20.56° C | 52% | 1018.6 hPa | 0 mm | - | 1018 W/m² | - |
| 1778175657 | 20.56° C | 54% | 1018.5 hPa | 0 mm | - | 761 W/m² | - |
| 1778175596 | 20.56° C | 52% | 1018.5 hPa | 0 mm | - | 832 W/m² | - |
| 1778175537 | 20.56° C | 53% | 1018.5 hPa | 0 mm | - | 1027 W/m² | - |
| 1778175498 | 20.56° C | 52% | 1018.5 hPa | 0 mm | - | 1008 W/m² | - |
* Rain latest hour (hover to see other rain measurements)
** Current wind speed in m/s (hover to see current wind gust speed)